Bellefontaine, OH

8:06 AM EDT on April 26, 2017 (GMT -0400)
Bellefontaine

Weather History for KEDJ - March, 2013

Change the Weather History Date:

Tuesday, March 12, 2013

  Actual Average (KDLZ) Record (KDLZ)
Temperature  
Mean Temperature 34 °F -  
Max Temperature 35 °F 46 °F 75 °F (1990)
Min Temperature 32 °F 26 °F -5 °F (1948)
Degree Days  
Heating Degree Days 32    
Moisture  
Dew Point 30 °F    
Average Humidity 89    
Maximum Humidity 100    
Minimum Humidity 75    
Precipitation  
Precipitation 0.00 in - - ()
Sea Level Pressure  
Sea Level Pressure 29.89 in    
Wind  
Wind Speed 13 mph (WSW)    
Max Wind Speed 20 mph    
Max Gust Speed 28 mph    
Visibility 9 miles    
Events      
Averages and records for this station are not official NWS values.
T = Trace of Precipitation, MM = Missing Value Source: NWS Daily Summary

Daily Weather History Graph

Daily Weather History Graph

Search for Another Location

Airport or City:

Trip Planner

Search our weather history database for the weather conditions in past years. The results will help you decide how hot, cold, wet, or windy it might be!

Date:

Astronomy

Mar. 12, 2013 Rise Set
Actual Time 7:51 AM EDT 7:39 PM EDT
Civil Twilight 7:24 AM EDT 8:06 PM EDT
Nautical Twilight 6:52 AM EDT 8:37 PM EDT
Astronomical Twilight 6:20 AM EDT 9:09 PM EDT
Moon 7:57 AM EDT (3/12) 8:53 PM EDT (3/12)
Length of Visible Light 12h 42m
Length of Day
11h 47m
New Moon, 1% of the Moon is Illuminated
Mar 12
New Moon
Mar 19
First Quarter
Mar 27
Full
Apr 3
Last Quarter
Apr 10
New

Hourly Weather History & Observations

Time (EDT) Temp. Windchill Dew Point Humidity Pressure Visibility Wind Dir Wind Speed Gust Speed Precip Events Conditions
12:10 AM 35.6 °F 26.6 °F 32.0 °F 87% 29.78 in 10.0 mi WSW 13.8 mph - 0.00 in   Overcast
12:30 AM 35.6 °F 27.5 °F 32.0 °F 87% 29.78 in 10.0 mi WSW 11.5 mph - 0.00 in   Overcast
12:50 AM 35.6 °F 25.2 °F 32.0 °F 87% 29.78 in 10.0 mi WSW 18.4 mph - 0.00 in   Overcast
1:10 AM 35.6 °F 25.5 °F 32.0 °F 87% 29.79 in 10.0 mi WSW 17.3 mph - 0.00 in   Overcast
1:30 AM 33.8 °F 23.9 °F 32.0 °F 93% 29.79 in 8.0 mi West 15.0 mph 21.9 mph 0.00 in   Overcast
2:10 AM 33.8 °F 22.8 °F 32.0 °F 93% 29.80 in 10.0 mi WSW 18.4 mph 27.6 mph 0.00 in   Overcast
2:30 AM 33.8 °F 22.8 °F 32.0 °F 93% 29.81 in 10.0 mi WSW 18.4 mph - 0.00 in   Overcast
2:50 AM 33.8 °F 24.8 °F 32.0 °F 93% 29.81 in 10.0 mi WSW 12.7 mph - 0.00 in   Overcast
3:10 AM 33.8 °F 24.3 °F 32.0 °F 93% 29.82 in 7.0 mi WSW 13.8 mph - 0.00 in   Overcast
3:30 AM 33.8 °F 24.8 °F 32.0 °F 93% 29.82 in 10.0 mi WSW 12.7 mph - 0.00 in   Overcast
3:50 AM 33.8 °F 25.3 °F 32.0 °F 93% 29.82 in 10.0 mi WSW 11.5 mph - 0.00 in   Overcast
4:10 AM 33.8 °F 24.3 °F 32.0 °F 93% 29.82 in 10.0 mi WSW 13.8 mph 19.6 mph 0.00 in   Overcast
4:30 AM 32.0 °F 21.6 °F 32.0 °F 100% 29.82 in 10.0 mi WSW 15.0 mph 21.9 mph 0.00 in   Overcast
4:50 AM 32.0 °F 21.6 °F 32.0 °F 100% 29.82 in 10.0 mi WSW 15.0 mph - 0.00 in   Overcast
5:10 AM 32.0 °F 23.0 °F 30.2 °F 93% 29.82 in 10.0 mi WSW 11.5 mph 19.6 mph 0.00 in   Overcast
5:30 AM 32.0 °F 23.0 °F 30.2 °F 93% 29.83 in 10.0 mi WSW 11.5 mph 17.3 mph 0.00 in   Overcast
5:50 AM 32.0 °F 22.1 °F 30.2 °F 93% 29.83 in 10.0 mi West 13.8 mph - 0.00 in   Overcast
6:10 AM 32.0 °F 22.1 °F 30.2 °F 93% 29.84 in 10.0 mi WSW 13.8 mph - 0.00 in   Overcast
6:30 AM 32.0 °F 24.8 °F 32.0 °F 100% 29.85 in 7.0 mi West 8.1 mph - 0.00 in   Overcast
6:50 AM 32.0 °F 21.6 °F 32.0 °F 100% 29.85 in 7.0 mi West 15.0 mph 21.9 mph 0.00 in   Overcast
7:10 AM 32.0 °F 23.0 °F 32.0 °F 100% 29.86 in 5.0 mi West 11.5 mph 17.3 mph 0.00 in   Overcast
7:30 AM 32.0 °F 22.1 °F 32.0 °F 100% 29.86 in 9.0 mi WSW 13.8 mph 19.6 mph 0.00 in   Overcast
7:50 AM 32.0 °F 23.0 °F 32.0 °F 100% 29.86 in 8.0 mi West 11.5 mph - 0.00 in   Overcast
8:10 AM 32.0 °F 23.0 °F 32.0 °F 100% 29.87 in 7.0 mi West 11.5 mph - 0.00 in   Overcast
8:30 AM 32.0 °F 22.1 °F 32.0 °F 100% 29.87 in 7.0 mi WSW 13.8 mph - 0.00 in   Overcast
8:50 AM 32.0 °F 22.1 °F 32.0 °F 100% 29.88 in 5.0 mi West 13.8 mph - 0.00 in   Overcast
9:10 AM 32.0 °F 20.8 °F 32.0 °F 100% 29.89 in 7.0 mi WSW 17.3 mph 20.7 mph 0.00 in   Overcast
9:30 AM 32.0 °F 22.5 °F 30.2 °F 93% 29.90 in 8.0 mi WSW 12.7 mph - 0.00 in   Overcast
9:50 AM 32.0 °F 24.2 °F 30.2 °F 93% 29.91 in 8.0 mi WSW 9.2 mph - 0.00 in   Overcast
10:10 AM 32.0 °F 23.0 °F 30.2 °F 93% 29.90 in 7.0 mi WSW 11.5 mph - 0.00 in   Overcast
10:30 AM 32.0 °F 22.1 °F 30.2 °F 93% 29.91 in 7.0 mi WSW 13.8 mph 20.7 mph 0.00 in   Overcast
10:50 AM 32.0 °F 22.1 °F 30.2 °F 93% 29.91 in 10.0 mi WSW 13.8 mph 24.2 mph 0.00 in   Overcast
11:10 AM 32.0 °F 20.8 °F 30.2 °F 93% 29.92 in 10.0 mi WSW 17.3 mph 20.7 mph 0.00 in   Overcast
11:30 AM 32.0 °F 22.5 °F 28.4 °F 87% 29.91 in 10.0 mi WSW 12.7 mph - 0.00 in   Overcast
11:50 AM 32.0 °F 23.0 °F 28.4 °F 87% 29.91 in 10.0 mi WSW 11.5 mph - 0.00 in   Overcast
12:10 PM 32.0 °F 24.2 °F 28.4 °F 87% 29.91 in 10.0 mi SW 9.2 mph - 0.00 in   Overcast
12:30 PM 32.0 °F 23.0 °F 28.4 °F 87% 29.92 in 10.0 mi WSW 11.5 mph - 0.00 in   Overcast
12:50 PM 32.0 °F 23.0 °F 28.4 °F 87% 29.92 in 10.0 mi WSW 11.5 mph 17.3 mph 0.00 in   Overcast
1:10 PM 32.0 °F 21.6 °F 28.4 °F 87% 29.94 in 10.0 mi WSW 15.0 mph 23.0 mph 0.00 in   Overcast
1:30 PM 32.0 °F 22.1 °F 28.4 °F 87% 29.93 in 10.0 mi WSW 13.8 mph - 0.00 in   Overcast
1:50 PM 32.0 °F 21.2 °F 28.4 °F 87% 29.92 in 10.0 mi WSW 16.1 mph 19.6 mph 0.00 in   Overcast
2:10 PM 32.0 °F 20.8 °F 28.4 °F 87% 29.91 in 10.0 mi West 17.3 mph - 0.00 in   Overcast
2:30 PM 32.0 °F 21.2 °F 28.4 °F 87% 29.92 in 10.0 mi WSW 16.1 mph - 0.00 in   Overcast
2:50 PM 33.8 °F 22.8 °F 28.4 °F 81% 29.92 in 10.0 mi WSW 18.4 mph 27.6 mph 0.00 in   Overcast
3:10 PM 33.8 °F 23.2 °F 28.4 °F 81% 29.92 in 10.0 mi WSW 17.3 mph 25.3 mph 0.00 in   Overcast
3:30 PM 33.8 °F 22.5 °F 28.4 °F 81% 29.91 in 10.0 mi WSW 19.6 mph 23.0 mph 0.00 in   Overcast
3:50 PM 33.8 °F 23.9 °F 28.4 °F 81% 29.91 in 10.0 mi WSW 15.0 mph 23.0 mph 0.00 in   Overcast
4:10 PM 33.8 °F 23.5 °F 28.4 °F 81% 29.91 in 10.0 mi WSW 16.1 mph 21.9 mph 0.00 in   Overcast
4:30 PM 33.8 °F 23.9 °F 28.4 °F 81% 29.91 in 10.0 mi SW 15.0 mph - 0.00 in   Overcast
4:50 PM 35.6 °F 25.9 °F 28.4 °F 75% 29.92 in 10.0 mi WSW 16.1 mph 19.6 mph 0.00 in   Overcast
5:10 PM 33.8 °F 24.8 °F 28.4 °F 81% 29.92 in 10.0 mi WSW 12.7 mph - 0.00 in   Overcast
5:30 PM 35.6 °F 27.5 °F 28.4 °F 75% 29.92 in 10.0 mi SW 11.5 mph - 0.00 in   Overcast
5:50 PM 35.6 °F 28.6 °F 30.2 °F 81% 29.91 in 10.0 mi SW 9.2 mph - 0.00 in   Overcast
6:10 PM 35.6 °F 29.2 °F 30.2 °F 81% 29.91 in 10.0 mi SW 8.1 mph - 0.00 in   Overcast
6:30 PM 35.6 °F 29.2 °F 30.2 °F 81% 29.91 in 10.0 mi SW 8.1 mph - 0.00 in   Overcast
6:50 PM 35.6 °F 29.9 °F 30.2 °F 81% 29.92 in 10.0 mi SW 6.9 mph - 0.00 in   Overcast
7:10 PM 35.6 °F 29.9 °F 32.0 °F 87% 29.92 in 10.0 mi WSW 6.9 mph - 0.00 in   Overcast
7:30 PM 35.6 °F 27.1 °F 30.2 °F 81% 29.93 in 5.0 mi WSW 12.7 mph 18.4 mph 0.00 in   Mostly Cloudy
7:50 PM 33.8 °F 25.8 °F 32.0 °F 93% 29.94 in 3.0 mi West 10.4 mph 24.2 mph 0.00 in   Mostly Cloudy
8:10 PM 33.8 °F 27.0 °F 30.2 °F 87% 29.94 in 10.0 mi West 8.1 mph - 0.00 in   Scattered Clouds
8:30 PM 33.8 °F 27.0 °F 28.4 °F 81% 29.95 in 10.0 mi West 8.1 mph - 0.00 in   Partly Cloudy
8:50 PM 33.8 °F 25.8 °F 28.4 °F 81% 29.95 in 10.0 mi West 10.4 mph - 0.00 in   Clear
9:10 PM 32.0 °F 25.6 °F 28.4 °F 87% 29.96 in 10.0 mi West 6.9 mph - 0.00 in   Clear
9:30 PM 32.0 °F 26.4 °F 28.4 °F 87% 29.95 in 10.0 mi West 5.8 mph - 0.00 in   Clear
9:50 PM 32.0 °F 28.7 °F 28.4 °F 87% 29.95 in 10.0 mi West 3.5 mph - 0.00 in   Clear
10:10 PM 32.0 °F - 28.4 °F 87% 29.95 in 10.0 mi Calm Calm - 0.00 in   Clear
10:30 PM 32.0 °F - 28.4 °F 87% 29.95 in 10.0 mi Calm Calm - 0.00 in   Clear
10:50 PM 32.0 °F - 28.4 °F 87% 29.95 in 10.0 mi Calm Calm - 0.00 in   Scattered Clouds
11:10 PM 32.0 °F 27.5 °F 30.2 °F 93% 29.95 in 10.0 mi South 4.6 mph - 0.00 in   Mostly Cloudy
11:30 PM 32.0 °F 21.6 °F 30.2 °F 93% 29.95 in 6.0 mi WSW 15.0 mph 19.6 mph 0.00 in   Scattered Clouds
11:50 PM 32.0 °F 23.0 °F 32.0 °F 100% 29.96 in 1.0 mi WSW 11.5 mph - 0.00 in   Overcast